Location: Peterborough
(44.3091°N, 78.3197°W)
Time: 11:31:18
(UTC-05:00)

SR - Visible Passes

Search period start: 11 December 2023 00:00
Search period end: 21 December 2023 00:00
Orbit: 571 x 872 km, 66.7° (Epoch: 10 December)

Date Brightness Start Highest point End Pass type
(mag) Time Alt. Az. Time Alt. Az. Time Alt. Az.
11 Dec ? 18:30:51 10° NNW 18:36:39 69° NE 18:39:31 29° SE visible
11 Dec ? 20:14:02 10° WNW 20:17:59 20° WSW 20:18:55 19° WSW visible
12 Dec ? 17:39:26 10° NNW 17:44:52 39° NE 17:49:57 10° ESE visible
12 Dec ? 19:21:35 10° NW 19:26:51 39° WSW 19:30:56 14° S visible
13 Dec ? 18:29:44 10° NW 18:35:29 76° WSW 18:40:50 10° SSE visible
13 Dec ? 20:15:00 10° W 20:16:21 11° W 20:17:41 10° WSW visible
14 Dec ? 17:38:10 10° NNW 17:43:53 59° NE 17:49:12 10° SE visible
14 Dec ? 19:21:02 10° NW 19:25:22 23° WSW 19:29:29 10° SSW visible
15 Dec ? 18:28:46 10° NW 18:34:11 45° WSW 18:39:13 10° S visible
16 Dec ? 17:36:59 10° NNW 17:42:46 87° WSW 17:48:06 10° SSE visible
16 Dec ? 19:21:16 10° WNW 19:23:45 13° W 19:26:12 10° SW visible
17 Dec ? 18:28:04 10° NW 18:32:44 27° WSW 18:37:07 10° SSW visible
18 Dec ? 17:35:57 10° NW 17:41:30 53° WSW 17:46:36 10° S visible
19 Dec ? 06:27:22 10° ESE 06:29:31 12° E 06:31:42 10° ENE visible
19 Dec ? 18:27:56 10° WNW 18:31:09 16° WSW 18:34:14 10° SW visible
20 Dec ? 17:35:09 10° NW 17:40:04 32° WSW 17:44:40 10° S visible
